Location: Poughquag
(41.6090°N, 73.6820°W)
Time: 18:24:27
(UTC-04:00)

A-11 Canister half - Pass Details

Date: 02 June 2020
Orbit: 1514 x 1686 km, 47.2° (Epoch: 19 September)

Event Time Altitude Azimuth Distance (km) Brightness Sun altitude
Rises 21:28:50 0° 290° (WNW) 4,660 12.9 -10.5°
Reaches altitude 10° 21:33:01 10° 274° (W) 3,673 11.8 -11.1°
Maximum altitude 21:38:49 19° 234° (SW) 3,038 10.7 -11.9°
Drops below altitude 10° 21:44:41 10° 194° (SSW) 3,692 10.7 -12.6°
Enters shadow 21:48:12 - 180° (S) 4,498 11.0 -13.1°
